Location: Celina Division
(33.3022°N, 96.7580°W)
Time: 04:31:28
(UTC+00:00)

Cosmos 1812 - Pass Details

Date: 02 July 2022
Orbit: 508 x 515 km, 82.5° (Epoch: 07 August)

Event Time Altitude Azimuth Distance (km) Brightness Sun altitude
Rises 08:22:51 0° 346° (NNW) 2,630 6.9 -27.7°
Reaches altitude 10° 08:25:02 10° 340° (NNW) 1,738 5.8 -27.5°
Enters shadow 08:26:23 20° 332° (NNW) 1,227 4.9 -27.3°
